Theta_e
332 334 332 328 330 330 328 328 326 328 330 329 329 329 328 326 325 324 325 325 324 323 322 322 321 319 319 315 307 300 296 297 298 297 296 297 297 297 297 297 297 297 297 297 296 299 311 320 320 320 320 319 320 319 319 319 318 318 319 318 318 317 317 316 315 315 316 317 317 317 316 317 316 317 318 319 320 320 319 320 320 320 321 321 321
333 334 332 329 330 330 330 328 327 327 328 329 330 329 329 327 325 325 326 324 322 321 322 322 321 320 319 317 315 309 301 297 297 297 297 296 296 296 296 296 297 297 297 297 297 295 303 315 320 320 320 320 319 320 319 319 318 318 319 318 317 317 317 316 316 315 315 315 316 316 315 316 316 316 317 317 318 318 318 319 319 320 321 321 321
332 331 330 329 329 329 328 328 327 327 328 329 329 329 329 327 325 326 325 322 320 320 322 322 320 319 318 317 316 314 308 301 298 298 297 297 296 296 296 296 296 297 297 296 297 296 298 309 318 320 320 321 320 320 319 319 319 318 318 318 318 318 317 316 315 315 315 314 314 315 315 315 315 315 316 316 316 316 317 317 317 318 319 320 320
331 330 329 328 327 327 327 327 327 328 329 329 328 328 328 327 327 327 325 321 320 321 322 321 319 318 317 316 315 314 312 308 304 301 299 298 297 297 296 295 296 296 297 297 297 297 295 302 313 317 318 320 321 321 321 320 319 318 318 318 318 318 317 316 316 315 314 314 315 315 315 314 314 315 315 315 315 315 315 316 316 316 317 318 318
331 330 329 329 328 327 327 327 327 328 328 327 327 327 327 328 327 327 325 322 321 323 322 319 318 317 315 314 313 312 312 310 309 306 304 301 298 297 297 296 296 296 296 297 297 297 296 297 304 311 315 319 320 320 321 321 320 319 318 318 319 319 318 317 316 315 314 315 314 315 315 314 314 314 315 315 315 314 314 314 315 315 315 316 316
329 329 329 328 327 327 327 327 327 327 326 325 325 326 327 327 326 326 325 323 323 323 323 320 318 317 315 315 314 313 312 310 309 308 305 303 300 298 297 296 296 296 296 296 297 297 297 296 299 303 309 314 317 318 319 319 320 320 319 319 320 320 319 318 317 316 315 315 314 314 315 315 314 314 314 315 314 314 314 314 314 314 314 314 315
326 326 327 327 326 326 326 327 327 327 326 326 325 325 326 325 323 323 323 323 323 323 322 320 318 316 315 315 314 314 313 312 310 309 307 305 302 300 298 297 296 296 296 296 296 296 296 297 297 299 302 306 311 314 316 317 318 319 320 320 319 319 320 318 317 318 316 315 315 315 315 315 314 314 314 314 314 314 313 313 313 313 313 313 314
324 324 324 325 325 325 325 324 325 326 325 324 324 324 323 323 322 320 320 321 322 322 321 319 317 316 316 315 315 314 314 313 312 310 308 307 305 303 300 298 297 296 296 296 296 296 296 296 296 297 298 300 303 307 311 313 315 316 317 318 318 319 319 317 317 318 317 316 315 314 314 315 314 314 314 314 313 313 313 313 312 312 312 312 313
321 321 321 321 322 322 322 322 323 323 322 322 323 322 321 320 319 318 318 318 318 319 319 318 317 316 315 315 314 313 313 313 312 311 311 310 308 306 303 301 299 297 296 296 296 296 296 296 296 296 297 297 298 300 303 306 309 311 313 315 316 318 319 319 317 318 318 317 315 315 315 314 314 313 313 313 313 313 312 312 312 312 312 312 312
317 317 317 318 318 319 319 320 320 319 319 320 320 319 318 317 317 317 317 317 317 316 317 317 316 316 315 314 313 312 311 310 310 311 311 312 311 309 306 303 301 299 298 297 297 296 296 295 295 296 296 296 296 297 298 300 302 304 306 308 311 315 318 319 317 317 317 316 315 314 315 314 313 312 312 312 312 312 312 311 311 311 311 311 311
313 313 314 315 315 316 317 317 316 316 316 317 317 316 316 315 315 315 314 315 314 314 314 314 314 315 313 312 312 311 311 310 310 310 309 308 308 307 305 303 301 299 298 297 297 297 296 296 296 295 295 295 296 296 296 297 298 299 300 302 305 310 315 318 317 316 316 315 315 314 314 314 313 312 312 312 311 312 312 311 310 310 310 310 310
309 310 310 311 312 312 313 313 313 314 314 314 314 314 314 314 314 313 313 312 312 311 310 310 311 311 310 310 310 310 310 309 309 308 305 303 301 301 302 300 298 297 297 297 297 297 296 296 296 296 296 295 295 295 296 296 296 297 297 299 300 304 311 315 316 316 316 315 314 314 313 313 312 312 311 311 311 311 312 311 311 310 309 310 310
307 307 307 308 308 308 308 308 309 310 311 309 309 310 311 312 312 311 311 310 309 307 306 307 306 305 306 307 307 307 307 307 306 303 301 301 302 303 302 298 298 299 298 298 297 296 296 296 297 296 296 296 296 296 295 296 296 296 296 297 298 300 306 312 314 315 316 316 316 314 313 312 311 311 311 311 311 311 311 311 311 310 309 309 310
303 303 304 304 304 304 304 304 304 305 305 305 305 306 307 308 308 308 308 307 305 302 303 304 301 299 300 301 302 304 305 305 303 301 301 303 304 303 300 299 300 300 297 297 297 298 298 298 298 297 297 296 296 296 296 296 296 295 296 296 296 297 300 307 312 313 314 315 316 316 314 314 312 312 312 312 312 311 310 310 310 310 310 310 310
300 300 300 300 300 301 301 301 301 302 302 303 303 303 303 303 304 305 304 304 302 300 301 301 299 299 300 300 300 300 303 301 299 301 303 302 301 300 300 300 300 298 297 298 299 299 299 298 298 297 297 296 296 296 296 296 296 295 295 295 295 295 296 299 304 310 312 313 314 316 316 315 314 314 313 313 312 311 310 309 310 310 309 309 309
298 298 298 298 298 298 298 298 298 299 299 300 300 300 300 300 301 302 303 302 300 299 299 298 298 299 299 299 298 298 301 299 296 300 300 299 300 300 300 299 298 298 299 299 298 299 298 298 297 297 296 296 296 296 296 296 296 296 296 295 295 295 295 295 296 301 307 311 313 314 315 316 315 314 314 313 311 310 310 309 309 309 309 309 309
297 297 297 297 296 296 296 296 296 296 296 296 296 296 297 297 298 299 300 300 299 299 298 298 297 297 297 298 298 299 298 296 296 299 298 298 299 299 298 298 298 299 298 298 299 299 298 298 298 298 297 297 297 297 297 297 297 297 296 296 296 295 295 295 294 294 298 305 311 312 314 315 316 315 314 312 311 310 309 309 309 309 309 308 308
293 293 293 293 293 293 294 294 294 294 294 294 294 294 294 295 295 296 296 297 298 298 297 297 297 297 297 296 297 297 295 295 297 298 298 298 297 297 297 298 297 297 298 298 298 298 298 298 298 298 298 298 298 298 298 298 298 297 297 297 296 296 296 295 295 295 294 297 304 310 312 314 315 315 314 313 311 310 309 309 309 309 308 308 308
289 289 289 289 289 289 289 290 290 289 290 290 291 291 291 292 292 293 293 293 294 295 294 295 296 296 296 296 296 296 295 295 296 296 297 297 296 297 297 296 296 296 296 296 296 296 296 296 297 297 298 298 299 299 298 298 298 297 298 298 297 296 296 296 295 295 295 294 296 302 308 311 313 314 314 314 313 311 309 309 309 308 308 307 307
287 287 287 287 287 287 287 287 287 287 287 287 287 288 288 288 288 288 289 289 290 291 292 292 293 293 293 293 294 294 295 295 294 294 295 295 296 297 296 294 294 294 294 294 294 294 294 294 295 295 296 297 297 298 298 298 298 297 297 297 297 296 296 296 296 295 295 295 294 295 298 304 308 310 312 314 314 312 310 310 309 309 308 307 307
286 286 286 286 286 286 286 286 286 286 286 286 286 286 286 286 286 286 286 286 286 287 288 289 290 290 290 290 290 291 292 293 293 293 293 294 295 295 294 292 292 292 291 291 292 291 290 291 292 293 295 295 296 296 297 297 298 297 297 296 296 296 295 295 295 295 295 295 295 294 294 295 299 302 305 309 313 314 312 311 310 309 308 307 307
286 286 286 286 286 286 286 286 285 285 285 285 285 286 285 285 285 285 286 286 285 285 286 286 286 287 287 287 288 289 291 292 292 292 292 293 293 293 293 292 292 291 289 289 289 288 288 289 289 291 293 294 295 295 295 296 296 297 297 296 295 295 295 295 295 295 295 295 295 295 294 293 293 295 297 300 306 311 313 312 310 309 309 307 308
285 285 285 285 285 285 285 285 285 285 285 285 285 285 285 285 285 285 285 285 285 285 285 285 285 285 285 285 286 287 289 290 290 291 291 292 291 292 292 291 291 291 288 287 287 287 288 289 289 290 290 291 293 294 295 295 295 296 295 295 295 294 294 294 294 294 295 295 295 295 295 294 293 293 293 293 297 305 310 312 312 310 309 308 307
285 285 285 285 285 285 285 285 285 284 284 284 284 284 284 284 284 284 284 284 284 284 284 284 284 284 284 284 284 284 285 286 286 287 289 290 290 290 291 290 290 290 288 285 286 287 288 288 289 289 289 289 290 291 293 293 294 294 294 294 294 294 294 294 294 294 294 294 294 295 295 294 294 293 293 292 293 298 305 311 312 311 311 309 307
285 285 284 284 284 284 284 284 284 284 284 284 284 284 284 284 284 284 284 284 284 283 283 283 283 283 283 284 284 283 283 284 284 284 285 287 288 289 289 289 289 289 287 286 287 287 287 288 288 288 288 289 289 289 290 291 291 292 293 294 294 294 295 294 294 294 294 294 294 294 294 294 294 293 293 292 292 293 298 306 311 311 311 310 309
284 284 284 284 284 284 284 284 284 284 284 284 284 284 284 284 284 284 283 283 283 283 283 283 283 283 283 283 283 283 282 282 282 282 283 284 286 288 288 288 288 288 288 287 287 287 287 287 287 287 288 288 289 289 289 288 288 288 290 292 293 294 294 294 294 294 293 294 293 293 293 293 293 293 293 292 292 292 293 299 307 311 311 311 310
284 284 284 284 284 284 284 284 284 284 284 284 284 284 284 284 283 283 283 283 283 283 283 283 283 283 283 283 283 283 283 282 282 282 281 282 283 285 286 286 287 287 287 287 287 287 286 286 286 287 287 287 288 288 288 288 288 286 286 287 288 290 291 293 294 294 294 294 294 294 294 293 293 293 293 293 292 292 291 292 299 307 310 311 310
284 284 284 284 284 284 284 284 284 284 283 284 284 283 283 283 283 283 283 283 283 283 283 283 284 284 283 283 283 283 283 283 282 282 282 281 281 282 284 285 286 286 286 286 286 286 285 286 286 286 286 288 288 287 287 287 286 285 285 286 286 286 287 289 292 293 294 294 294 294 294 294 294 293 293 293 293 292 291 290 292 300 308 311 310
283 283 283 283 283 283 283 283 283 283 283 283 283 283 283 283 283 283 283 283 283 283 283 283 283 283 283 282 282 282 282 282 282 282 282 281 281 281 282 283 285 285 285 285 286 286 285 284 285 285 286 287 286 286 285 284 284 284 284 285 285 285 286 286 288 291 293 294 294 294 295 295 295 294 293 293 293 293 292 291 290 295 305 310 309
283 283 283 283 283 283 283 283 283 283 283 283 283 283 283 283 283 283 283 283 283 283 283 282 282 282 282 282 281 281 281 281 281 281 281 281 281 281 280 281 283 284 284 284 285 286 285 284 284 285 285 285 284 284 284 284 284 284 284 284 285 285 285 286 286 287 289 292 293 293 294 294 294 294 293 293 293 293 293 292 289 292 302 308 309
284 284 284 284 284 284 284 283 283 283 283 283 283 283 283 283 283 283 283 283 283 283 283 283 282 282 282 282 281 281 280 280 280 280 280 279 279 280 280 280 281 282 283 284 284 284 285 284 284 284 284 284 284 284 283 284 284 284 284 284 284 284 285 285 285 286 286 288 291 292 293 293 293 293 294 293 293 293 293 293 291 290 299 307 308
284 284 284 284 284 284 284 283 283 283 283 283 283 283 283 282 282 282 283 283 283 283 283 283 282 282 282 282 281 281 281 280 280 279 279 279 278 279 279 280 280 281 282 283 283 283 284 284 283 283 283 284 284 284 284 284 284 284 284 284 284 284 284 284 285 285 285 286 287 290 292 293 293 293 293 293 293 293 293 293 293 290 294 303 307
284 284 284 284 284 283 283 283 283 283 282 282 282 282 282 282 282 282 282 282 282 282 282 282 282 281 281 281 281 280 280 280 279 279 279 278 278 278 278 279 280 280 281 282 282 282 283 283 282 283 283 283 283 283 283 283 284 284 284 284 284 284 284 284 284 284 285 285 285 287 289 292 293 293 293 293 293 293 292 293 294 293 292 297 304
284 284 284 283 283 283 283 282 282 282 282 281 281 281 281 281 281 281 281 281 281 281 281 281 281 280 280 279 279 279 279 278 278 278 278 278 277 277 278 278 279 279 280 280 281 281 282 282 282 282 282 282 283 283 283 283 283 283 283 284 284 284 284 284 284 284 284 285 285 285 286 288 291 293 293 292 292 293 293 292 294 294 293 293 298
284 284 283 283 283 282 282 282 281 281 281 281 280 280 280 280 280 280 280 280 280 280 280 279 279 279 278 278 278 278 277 277 277 277 277 277 277 277 277 277 278 278 278 279 279 280 281 281 281 281 282 282 282 282 282 282 282 283 283 283 283 283 284 284 284 284 284 284 285 285 285 286 288 291 292 292 292 292 292 292 292 294 295 294 295
284 283 283 282 282 282 281 281 280 280 280 280 280 279 279 279 279 279 279 279 278 278 278 278 277 277 277 276 277 276 276 276 276 276 276 276 276 276 277 277 277 277 277 278 278 279 279 280 280 281 281 281 281 282 282 282 282 282 283 283 283 283 283 284 284 284 284 284 284 285 285 285 286 288 290 291 292 292 292 292 292 292 293 295 295
283 283 282 282 281 281 280 280 280 279 279 279 279 279 278 278 278 278 277 277 277 277 276 276 276 276 275 275 275 275 275 275 275 275 275 275 275 276 276 276 277 277 277 277 278 278 279 279 279 280 280 281 281 281 282 282 282 283 283 283 283 283 283 283 284 284 284 284 284 285 285 285 285 286 287 289 290 291 291 291 292 291 291 293 295
282 282 282 281 281 281 280 280 280 279 279 279 278 278 278 278 277 277 277 276 276 276 275 275 275 275 274 274 274 274 274 274 274 274 274 274 275 275 275 276 276 276 277 277 277 278 278 278 279 279 279 280 280 281 281 282 282 282 283 283 283 283 283 283 284 284 284 284 284 285 285 285 285 285 286 287 288 290 291 291 291 291 292 292 293
282 282 282 281 281 281 280 280 279 279 279 278 278 278 277 277 277 276 276 275 275 275 275 275 275 274 274 274 273 273 273 273 274 274 274 274 275 275 275 276 276 276 277 277 277 278 278 278 278 278 278 279 279 280 280 281 281 282 282 283 283 283 283 284 284 284 284 284 284 284 285 285 285 285 285 286 287 288 289 290 290 290 291 292 293
282 282 282 282 281 281 280 279 279 278 278 278 277 277 277 277 276 276 275 275 275 275 275 274 274 274 274 273 273 273 273 273 273 274 274 274 274 275 275 275 276 276 276 276 277 277 277 277 278 278 278 278 279 279 280 280 281 281 282 282 283 283 283 283 284 284 284 284 284 284 284 285 285 285 285 285 285 286 287 289 290 290 290 291 293
282 282 282 282 281 280 280 279 279 278 278 277 277 277 276 276 275 275 274 274 274 274 274 274 274 273 273 273 272 272 272 273 273 273 273 273 273 274 274 274 274 274 274 275 275 275 276 276 277 278 278 279 279 279 280 280 280 281 281 282 282 282 283 283 283 283 284 284 284 284 284 285 285 285 285 285 285 286 286 287 289 289 290 290 291
282 282 282 281 281 280 280 279 279 278 278 277 277 276 275 275 274 274 274 273 273 273 273 273 273 273 273 272 272 271 271 272 272 271 271 272 272 273 273 273 273 273 273 273 274 274 274 275 276 276 277 277 278 278 278 279 280 280 281 281 282 282 283 283 283 284 284 284 284 284 284 285 285 285 286 286 286 286 287 287 288 288 289 289 289
281 281 281 281 281 280 279 279 278 278 277 277 276 275 275 274 274 273 273 273 272 272 272 272 272 272 272 271 271 271 270 270 270 270 270 271 271 272 272 272 272 273 273 273 273 274 274 274 275 275 275 275 276 276 276 277 277 277 278 279 280 280 281 282 283 284 284 284 284 284 285 285 285 285 286 286 286 286 287 287 287 287 288 289 289
281 281 281 281 280 280 279 279 278 277 277 276 276 275 274 274 274 273 272 273 272 272 272 272 271 271 271 270 270 270 270 270 269 269 270 270 270 270 270 271 271 272 272 273 273 273 274 274 274 274 275 275 275 275 275 275 275 276 276 277 277 277 278 279 280 281 282 283 284 284 284 284 285 285 285 285 286 286 286 286 286 287 287 288 288
281 281 280 280 280 279 279 278 278 277 276 276 275 274 274 274 273 272 272 273 272 272 272 271 270 270 270 270 270 269 269 269 269 269 269 269 269 269 270 270 270 271 271 272 272 273 273 273 273 273 273 274 274 274 274 275 275 275 275 276 276 276 277 277 278 279 280 281 282 283 283 284 284 285 285 285 285 286 286 286 286 286 287 287 288
280 280 280 280 279 279 278 278 277 276 276 275 275 274 273 273 273 272 272 272 271 271 270 270 269 269 269 269 269 269 269 269 268 268 269 269 269 269 270 270 270 271 271 271 272 272 272 273 273 273 273 273 273 274 274 274 275 275 276 276 277 277 277 277 278 278 279 279 280 281 281 282 283 284 284 285 285 285 285 286 286 286 287 287 287
280 280 279 279 279 278 278 277 276 276 275 275 274 273 273 273 272 271 271 271 270 270 269 269 269 269 269 269 269 269 269 269 269 269 269 270 270 270 271 271 271 271 271 272 272 272 272 272 273 273 273 273 273 274 274 275 275 276 276 277 277 277 278 278 278 279 279 279 280 280 281 281 282 283 283 284 285 285 285 285 286 286 286 287 287
279 279 279 279 278 277 277 276 276 275 275 274 273 273 273 272 271 270 270 269 269 269 269 268 268 268 269 269 269 269 269 269 269 270 270 271 271 271 272 272 272 272 272 273 273 273 273 274 274 274 274 275 275 275 276 276 276 277 277 277 277 277 277 278 278 278 279 279 280 281 282 282 282 283 283 283 284 284 284 285 285 285 286 286 286
279 279 278 278 277 277 276 275 275 275 274 273 273 272 272 272 271 269 269 269 269 269 269 269 269 269 269 269 269 269 269 269 270 271 271 272 273 273 273 273 273 274 274 274 274 274 274 274 275 275 275 276 276 276 276 276 276 276 276 276 276 276 276 276 277 277 277 277 278 280 281 282 282 283 284 284 284 284 284 284 285 285 285 285 286
278 278 277 277 277 276 275 275 274 274 274 273 272 272 272 272 271 269 268 269 269 269 269 269 269 269 269 269 269 270 270 270 271 272 273 273 274 274 274 274 274 274 274 274 274 274 274 275 275 275 275 275 276 276 276 276 276 276 276 276 276 276 276 276 276 276 276 276 276 277 279 280 281 282 283 284 284 284 285 284 285 285 285 285 286
277 277 277 276 276 275 275 274 274 273 273 273 272 272 272 272 270 269 269 269 269 269 269 269 269 269 269 270 270 271 271 271 272 273 273 274 274 274 275 275 275 275 275 275 275 275 275 275 275 275 275 275 275 275 275 276 276 276 276 276 276 276 276 276 276 276 275 275 276 277 277 279 280 281 282 284 284 285 285 285 285 285 285 285 285
Wind_Speed
21 20 18 15 15 15 11 9 11 13 15 13 12 9 8 8 7 11 10 8 10 13 14 13 13 13 12 11 10 11 11 11 11 10 9 8 7 7 8 8 8 8 7 7 7 6 5 6 7 6 6 6 6 7 5 5 5 4 5 4 4 7 8 8 7 4 3 3 2 3 3 4 5 4 4 3 3 4 5 5 5 5 6 5 6
16 16 16 13 11 13 11 10 12 12 13 15 15 11 9 9 9 10 8 7 10 12 13 13 13 13 12 12 11 11 11 11 12 11 10 10 9 9 8 9 8 8 8 8 8 7 6 5 6 7 7 8 8 8 7 6 6 6 7 6 7 8 6 6 7 3 4 4 4 5 4 4 5 4 4 4 4 4 4 4 5 5 5 4 4
8 8 7 6 7 9 11 12 12 12 13 15 15 13 10 10 10 8 4 6 7 8 11 13 13 12 12 12 12 11 11 11 11 11 11 11 11 10 10 9 9 9 9 9 8 8 8 5 4 6 7 8 8 8 8 7 7 8 7 7 8 8 7 8 7 5 7 8 6 6 6 7 7 6 5 4 4 4 4 6 5 5 5 5 4
3 2 3 4 5 7 10 9 8 8 11 13 14 15 11 10 12 8 2 4 5 6 9 10 11 12 11 11 11 11 11 12 12 11 11 12 12 12 11 10 10 9 9 9 9 9 9 8 5 5 6 7 8 8 8 8 7 8 8 8 9 9 9 9 9 10 10 10 7 5 6 8 7 6 5 6 6 6 6 6 6 6 5 4 5
1 1 2 4 5 6 7 6 5 7 10 12 13 15 12 12 14 10 5 3 5 5 7 8 9 10 10 10 10 11 11 11 11 11 12 12 13 13 13 12 11 10 10 9 10 9 10 10 9 8 7 7 8 8 8 9 9 9 9 10 11 10 10 12 13 14 14 12 9 7 7 7 6 7 6 6 7 8 9 7 5 6 7 6 6
2 2 2 3 5 6 5 5 5 6 8 9 10 12 12 13 13 11 9 8 8 7 7 8 8 8 8 8 9 10 11 11 11 10 10 11 12 13 13 13 12 12 11 11 11 11 11 11 11 11 10 10 10 10 9 9 10 11 11 12 13 12 12 14 15 15 15 13 10 7 7 7 6 7 7 7 7 6 8 8 6 6 7 8 7
3 4 5 5 6 6 5 4 4 5 6 7 9 10 11 12 12 11 11 11 10 9 9 10 10 9 8 8 9 9 10 11 11 11 11 12 12 13 13 13 13 12 12 12 12 12 12 12 12 12 12 12 12 12 11 10 10 11 12 12 13 13 13 13 14 15 13 10 10 8 7 8 8 8 10 8 7 6 7 8 8 7 8 8 8
6 4 3 3 5 5 4 4 4 5 7 7 8 8 9 11 11 11 10 10 10 9 9 10 11 11 10 10 9 9 9 10 11 12 12 12 13 13 13 13 13 13 13 13 14 13 13 13 13 13 13 14 14 14 14 13 12 12 12 12 13 13 12 11 13 13 11 8 9 9 8 9 10 11 12 10 8 8 8 8 8 8 9 9 9
13 10 8 7 5 4 4 5 5 5 5 4 5 6 7 8 9 9 8 8 9 8 9 11 13 14 14 13 12 12 11 11 11 11 12 13 13 13 13 13 13 14 14 14 15 15 15 15 15 15 14 15 15 15 15 15 15 14 14 13 13 13 12 11 11 10 11 11 10 10 10 12 13 13 14 12 10 9 8 8 8 9 10 9 10
17 15 15 14 13 12 10 8 7 5 4 3 3 4 4 5 6 6 6 7 7 9 10 11 13 15 15 15 15 14 13 12 12 12 12 13 13 13 13 12 12 13 14 14 15 15 16 16 17 16 16 16 16 16 17 17 17 16 16 16 15 14 12 11 12 11 12 12 10 11 12 14 15 15 15 14 13 11 9 9 10 11 11 11 10
18 17 17 17 16 16 15 13 11 9 8 7 6 5 5 5 5 6 6 6 6 8 9 10 11 12 14 14 14 14 14 14 13 13 12 12 13 12 11 11 12 12 13 14 15 15 16 17 18 18 18 18 18 18 18 18 18 18 18 17 17 16 13 11 11 13 15 15 14 13 14 16 16 16 16 16 16 14 12 12 13 12 12 12 11
18 17 17 17 17 17 16 15 13 10 10 10 10 8 7 7 7 7 7 7 8 9 9 10 10 11 13 13 13 14 14 13 12 11 11 11 12 12 12 12 12 12 13 13 14 15 16 17 18 19 20 20 20 20 20 20 20 20 19 19 18 17 17 16 13 13 16 18 18 16 16 18 17 17 18 18 17 15 14 15 15 14 13 13 12
16 16 17 17 18 17 16 16 14 12 12 13 12 10 9 8 8 8 8 8 10 10 11 10 10 12 14 15 14 12 11 11 9 7 8 12 14 16 15 13 14 15 15 14 14 15 16 16 17 17 18 19 19 20 20 21 21 21 21 20 20 19 19 19 18 17 16 16 18 19 19 19 20 20 19 18 16 14 14 16 16 16 15 13 13
18 17 17 17 17 18 18 18 17 16 15 14 14 13 12 11 10 9 9 10 11 12 12 10 10 12 12 11 11 11 12 9 5 7 13 17 16 13 12 13 17 17 15 15 17 19 20 20 19 18 18 18 18 19 20 20 20 21 22 22 22 21 21 21 21 21 19 17 17 16 17 19 20 19 17 15 15 15 15 15 15 16 15 14 14
21 20 20 19 19 19 19 18 18 17 16 16 16 16 16 15 14 12 11 11 11 12 13 12 12 12 7 4 4 7 8 5 8 19 19 14 11 12 14 15 16 17 18 20 21 22 22 22 21 20 19 19 19 19 20 20 20 20 21 22 22 22 22 23 23 24 24 22 19 17 17 18 18 18 16 15 15 16 15 15 15 16 15 15 15
22 21 21 21 20 20 19 19 19 18 18 18 19 19 19 18 17 15 13 13 13 14 14 13 14 12 5 3 2 3 3 5 16 21 11 10 15 16 13 13 16 19 21 22 23 24 23 23 22 22 21 20 20 20 20 20 20 20 20 20 21 22 22 23 24 25 25 26 24 21 19 19 20 19 18 17 16 15 15 15 16 16 16 16 16
23 23 23 22 22 22 21 21 21 21 21 21 21 21 20 19 19 17 16 15 14 14 14 13 15 15 9 3 2 2 2 8 14 8 5 16 17 9 9 16 19 20 21 24 26 26 25 25 25 24 23 23 22 22 22 22 22 22 21 20 20 20 21 22 24 25 26 27 27 26 22 21 22 22 20 18 18 18 16 15 16 17 17 16 16
27 27 27 26 26 26 25 25 26 25 25 24 24 23 22 22 20 19 19 17 14 16 16 14 14 16 14 9 4 2 3 8 8 4 11 14 5 6 15 18 18 21 26 28 27 27 27 27 28 27 27 27 26 26 25 24 24 23 23 22 21 21 21 21 22 24 26 27 28 29 26 24 24 24 23 21 20 20 17 15 16 18 18 18 17
29 29 29 28 28 28 28 28 28 28 27 27 27 26 25 24 23 22 22 21 19 20 19 16 15 16 15 11 8 7 6 6 4 4 10 7 5 14 17 14 20 26 25 24 25 27 28 28 30 31 30 30 29 28 26 26 25 25 24 24 24 23 23 22 21 22 24 27 28 30 30 29 28 26 25 24 23 22 18 15 16 18 19 19 18
28 28 28 27 27 27 27 27 27 27 27 27 27 25 25 24 24 24 24 24 23 22 21 19 18 17 16 14 13 12 10 8 5 5 5 5 12 16 16 22 27 21 18 22 25 25 27 29 29 29 29 28 27 27 27 26 25 25 25 24 24 24 24 23 23 22 22 24 27 30 32 33 33 32 29 26 24 24 22 18 18 18 19 20 20
27 26 26 25 25 25 25 25 25 25 24 24 23 22 22 22 22 22 22 22 22 21 20 20 18 17 16 16 15 14 12 9 8 9 5 4 7 9 18 30 25 18 22 24 24 26 27 27 26 26 25 25 24 24 24 24 24 24 24 23 23 24 24 24 24 24 23 23 24 27 30 32 34 36 36 31 26 25 24 22 21 20 20 19 20
25 24 24 24 23 23 23 23 23 22 22 21 21 20 20 19 19 19 18 19 18 18 18 17 16 15 15 15 15 14 9 7 8 10 6 3 5 7 16 21 17 23 32 27 27 31 26 24 25 24 23 23 22 22 22 22 22 23 23 23 24 24 24 25 24 24 23 23 23 25 28 31 33 34 36 36 32 27 24 24 24 22 19 19 20
23 23 22 22 21 21 21 21 20 20 20 20 19 19 18 17 16 16 16 16 15 15 14 14 13 13 13 14 14 12 8 6 8 8 6 4 6 7 13 19 17 23 31 33 33 31 25 24 24 21 22 23 22 21 21 21 20 21 21 22 23 24 25 25 25 25 24 24 23 24 25 28 32 33 34 36 36 34 30 26 27 25 21 20 20
21 21 21 19 19 19 18 18 18 19 18 18 17 17 16 15 15 15 15 15 14 14 13 13 13 12 12 12 12 11 10 9 9 9 8 8 8 7 11 17 15 18 30 36 33 29 27 25 21 20 22 21 21 21 20 20 20 20 21 22 23 25 25 25 25 24 24 24 24 24 25 26 29 31 33 35 36 38 37 31 29 28 25 22 20
19 20 19 17 17 17 17 17 17 17 17 16 16 15 15 15 16 15 15 15 14 14 14 13 13 12 12 11 10 10 10 10 10 11 11 11 10 9 11 13 11 17 29 31 28 29 27 23 21 23 23 20 20 20 19 20 22 22 22 23 24 25 27 27 26 26 24 24 24 24 25 26 28 30 31 33 35 37 40 38 33 30 28 26 23
18 18 17 15 15 15 15 15 16 16 16 16 16 16 16 16 16 16 16 16 15 14 14 13 13 12 12 12 12 12 11 11 11 12 13 13 11 10 12 12 12 16 20 21 23 24 22 23 26 24 23 22 20 19 21 22 23 24 24 25 26 26 27 28 27 27 26 25 25 24 23 24 26 28 30 32 34 35 38 41 39 35 31 30 28
16 15 14 13 13 13 13 14 14 14 15 15 15 15 16 16 16 16 16 16 15 16 15 15 15 14 13 14 14 14 13 13 13 13 13 13 12 12 12 9 8 10 12 15 19 20 23 26 27 23 22 22 21 21 22 22 24 27 28 27 28 27 27 28 28 29 29 29 28 28 26 25 24 26 28 30 33 34 35 38 41 39 36 33 31
13 12 12 11 12 12 12 13 14 14 15 15 16 16 17 17 17 17 17 17 16 16 16 15 15 16 15 15 16 15 15 15 15 15 15 14 14 14 12 8 7 8 8 10 12 17 24 25 23 23 21 18 20 23 24 28 31 33 31 29 29 29 28 27 28 29 31 32 32 32 32 30 28 26 26 28 30 33 35 35 38 39 38 36 34
11 11 11 12 12 13 14 15 16 17 17 18 19 19 20 20 20 20 20 20 20 19 19 18 18 18 17 17 17 17 17 17 16 16 16 16 15 14 13 11 10 8 6 7 7 12 25 30 25 26 25 21 23 29 33 37 38 35 34 33 31 30 29 27 27 27 28 31 32 33 33 33 31 29 28 27 29 31 33 34 35 37 38 38 38
11 11 12 13 14 15 16 17 18 18 19 19 20 20 21 21 21 21 21 21 22 21 21 22 22 22 22 22 21 21 20 20 19 18 17 16 16 16 15 14 12 11 9 10 9 10 19 30 31 31 34 35 34 37 38 38 38 37 35 35 33 31 30 29 28 27 27 28 29 31 31 32 32 31 29 28 28 30 32 33 33 35 37 38 39
10 11 12 13 14 15 15 16 17 17 18 18 19 19 20 20 20 21 21 21 22 22 22 23 23 23 24 24 24 24 24 24 23 22 20 18 17 17 17 17 15 15 15 13 12 12 13 21 35 40 41 43 43 42 41 37 36 36 34 34 33 31 31 31 30 29 28 28 28 29 30 31 32 31 30 29 28 29 31 32 32 34 36 37 38
8 9 10 11 13 14 15 16 16 17 17 18 18 19 19 20 20 20 21 21 22 23 23 23 23 24 25 25 26 25 26 26 26 26 25 23 21 19 17 17 17 16 17 15 14 18 19 20 32 41 39 41 45 45 44 41 35 32 32 33 33 33 34 34 33 32 30 30 29 29 29 30 32 32 31 30 29 28 30 32 33 33 36 38 38
7 8 9 11 12 13 14 16 17 17 18 18 19 19 20 20 20 20 21 22 22 23 24 24 24 25 25 26 27 26 26 26 27 27 27 27 26 24 20 17 17 15 15 16 17 21 24 20 24 32 33 35 43 46 45 44 41 36 33 33 33 34 36 36 35 34 32 32 30 29 29 29 31 32 32 31 30 29 29 31 33 34 36 38 39
7 8 10 11 12 14 15 16 17 17 18 18 19 19 19 20 20 20 21 22 23 24 24 25 25 25 26 26 27 27 26 27 28 27 28 28 27 27 25 19 18 17 14 16 19 21 25 23 22 27 27 24 34 44 43 43 47 44 39 39 37 34 35 35 35 35 33 32 31 30 30 30 30 31 32 32 31 30 30 30 32 35 36 38 39
8 9 11 12 13 14 15 16 17 17 18 18 18 18 18 19 19 20 20 21 22 23 23 24 25 24 25 26 27 27 26 27 28 27 27 27 24 26 28 23 21 21 18 16 19 21 25 28 25 25 25 20 25 37 39 39 44 46 45 45 42 36 35 34 34 35 34 32 32 32 32 31 31 31 32 33 33 32 31 30 31 33 36 38 39
9 10 11 13 14 15 16 17 17 18 18 19 18 18 18 18 19 19 20 20 21 21 22 23 23 23 23 25 26 26 26 26 28 27 25 24 22 22 25 24 21 23 22 19 19 21 23 28 28 25 24 23 24 29 33 34 38 42 43 45 45 41 37 34 33 33 33 31 31 32 32 32 31 31 32 34 34 34 33 32 31 32 34 37 39
10 11 12 14 15 16 17 18 19 19 19 20 19 19 19 19 19 20 20 21 21 21 21 21 21 21 22 23 24 24 25 25 25 24 23 23 23 22 22 23 21 22 23 22 21 21 22 27 30 27 24 24 24 25 27 28 31 35 37 38 40 40 38 37 34 31 30 31 31 31 32 32 31 31 32 33 34 35 35 34 34 33 33 36 38
11 12 13 15 16 17 18 19 20 20 20 20 20 20 20 20 20 21 21 21 21 21 22 21 21 21 21 22 23 22 22 22 22 22 22 22 22 22 21 21 21 22 23 23 22 22 23 26 29 29 26 24 24 24 24 23 25 30 33 33 32 31 33 36 37 33 29 28 29 30 30 31 32 32 32 32 33 35 35 35 35 34 34 35 37
10 12 14 15 17 18 19 19 20 20 20 20 20 20 20 20 21 21 21 22 22 22 23 23 22 21 21 21 22 21 20 20 20 20 20 19 18 19 19 19 20 21 22 24 23 22 24 25 27 28 27 24 23 24 23 22 23 27 29 30 31 30 28 28 31 32 31 29 29 30 30 32 33 34 34 34 33 34 36 36 36 36 35 36 37
11 13 15 16 18 19 20 20 20 21 21 20 20 20 20 21 21 21 22 22 23 23 23 23 23 22 22 22 21 21 19 18 18 17 17 18 19 21 21 19 20 22 22 23 23 23 23 25 27 27 27 26 23 22 21 20 22 24 24 24 28 32 31 27 27 29 31 32 31 30 31 31 33 35 35 35 36 35 35 36 36 37 36 36 37
12 14 16 18 19 20 21 22 22 22 21 20 20 20 20 20 20 21 22 22 23 23 23 23 23 23 23 23 22 21 19 16 16 18 19 20 21 23 23 21 21 22 23 23 23 23 23 25 27 26 25 25 22 20 20 19 19 22 24 24 27 31 32 32 32 30 28 29 31 31 31 30 30 33 34 35 37 35 35 36 36 37 37 36 37
14 15 17 18 20 21 22 23 23 23 22 21 20 20 18 18 19 20 22 22 22 23 24 24 23 22 23 23 23 23 21 19 20 22 21 20 20 21 23 23 22 22 23 23 22 22 22 24 25 24 24 25 23 21 22 22 21 22 24 24 26 29 30 29 31 31 26 24 26 29 30 28 27 30 32 34 35 34 35 36 35 35 36 35 35
14 16 18 19 21 22 23 23 24 24 23 22 20 20 18 17 17 18 20 21 21 21 22 23 23 22 22 24 24 24 24 24 24 22 20 20 20 21 22 22 22 22 23 23 23 22 22 23 25 24 23 25 25 23 23 24 23 23 25 25 24 26 26 22 23 26 23 19 21 26 29 28 27 29 32 33 33 34 35 36 35 34 34 34 34
16 17 18 20 21 22 23 24 24 24 23 22 20 19 18 17 16 16 17 18 20 20 19 20 22 22 23 24 23 23 24 23 22 21 21 23 22 22 22 22 22 21 21 22 23 23 23 24 26 26 24 25 26 24 21 21 22 23 25 25 24 25 27 25 23 26 26 23 24 27 30 29 25 28 33 34 34 35 36 36 36 34 33 33 33
17 18 19 21 22 23 24 24 25 25 24 22 20 19 18 17 16 15 16 17 18 20 20 21 23 22 22 22 21 21 21 21 22 22 22 24 23 21 21 21 20 20 20 22 23 24 25 26 28 28 26 25 26 24 22 22 24 25 26 26 26 26 28 29 29 34 36 31 28 30 33 32 26 26 32 35 33 34 35 36 36 35 35 34 33
18 19 20 21 22 23 24 24 25 25 24 22 21 20 18 18 16 14 16 18 20 23 23 22 22 20 17 16 17 18 19 19 20 21 21 22 22 21 21 21 22 23 23 24 25 26 28 28 30 31 28 26 28 29 27 25 25 27 26 25 25 24 28 32 34 38 40 36 32 30 33 36 31 26 31 34 30 30 33 35 35 35 35 35 35
18 19 21 22 23 23 24 24 25 25 24 21 20 19 18 18 16 15 17 20 21 23 21 19 19 17 15 14 16 17 18 18 19 20 21 22 22 23 26 28 30 30 29 28 29 30 30 29 29 31 30 29 30 31 30 27 26 27 27 27 28 29 31 34 35 36 35 33 30 27 29 38 36 28 31 35 31 29 32 32 34 35 36 36 37
19 20 21 23 24 24 24 25 25 25 24 21 20 19 18 17 16 16 19 20 19 19 19 17 17 17 15 15 16 16 17 18 20 22 23 23 25 28 31 32 33 34 34 34 34 32 31 31 31 32 32 32 32 32 31 30 29 29 30 31 30 28 29 29 29 30 29 27 26 24 27 37 37 29 31 35 32 30 32 32 33 35 36 38 38
20 21 22 23 24 25 25 25 26 27 25 22 20 19 18 17 16 17 18 19 17 18 19 18 18 17 16 16 16 18 19 20 22 25 26 27 28 31 33 34 35 35 35 37 37 34 32 34 35 36 36 37 36 36 34 33 32 32 32 31 27 25 25 21 19 23 27 27 25 23 26 34 35 28 28 33 33 31 31 33 35 35 35 37 39
21 21 23 24 24 25 25 25 25 26 26 23 21 19 18 16 16 16 18 19 19 20 21 19 17 17 18 19 21 23 24 25 26 28 29 29 30 31 32 34 36 37 36 39 42 39 36 36 36 37 38 38 38 37 34 32 31 29 31 31 28 27 27 23 20 25 30 30 25 20 25 35 36 30 28 30 32 32 31 33 37 36 35 36 37
21 22 23 25 25 25 24 25 25 25 25 24 21 19 18 16 15 16 17 19 20 21 20 19 20 22 24 26 27 25 25 27 29 30 30 30 31 32 32 31 32 35 37 39 42 41 38 37 38 38 39 39 39 38 36 34 31 29 30 31 30 29 30 29 28 25 23 22 16 12 21 31 33 30 27 22 20 23 28 30 32 33 33 35 36
Wind_Direction
248 238 238 252 250 250 262 269 268 251 234 234 239 253 280 284 316 323 314 326 335 334 329 329 331 331 331 326 316 308 303 300 296 289 284 279 277 277 279 281 280 280 278 276 268 257 279 306 301 296 300 301 296 301 303 300 302 298 302 294 300 305 295 320 347 352 324 308 299 316 332 343 336 337 341 339 329 335 345 340 328 300 278 280 272
255 245 240 250 259 249 253 277 281 267 256 254 245 249 269 271 296 305 308 338 342 336 325 323 327 327 328 325 319 313 303 299 296 290 285 281 278 275 277 282 282 283 280 278 278 261 260 292 304 294 292 297 294 292 290 293 295 293 292 279 298 309 280 309 340 321 306 301 278 287 296 317 320 311 311 317 311 312 323 329 338 330 313 300 284
270 270 255 262 275 260 258 271 279 274 265 259 246 240 249 270 291 295 317 347 338 333 324 324 328 326 327 325 323 317 308 302 298 294 289 286 284 281 280 283 282 285 284 280 279 267 256 262 301 300 287 288 289 284 280 286 293 292 287 278 291 298 281 297 298 267 296 305 297 297 297 301 296 293 294 288 282 273 293 309 305 317 328 321 305
277 304 313 298 288 278 276 275 279 272 259 258 249 238 242 272 288 285 301 343 333 331 327 334 341 337 334 330 327 323 315 307 299 295 292 291 290 290 290 289 286 285 287 285 282 276 264 257 268 286 279 274 273 272 273 279 289 289 283 282 286 287 280 280 270 266 285 295 300 303 298 300 285 277 278 272 282 272 275 302 300 297 303 309 321
286 275 307 317 316 304 300 297 283 258 257 263 252 244 255 282 291 281 253 278 308 315 323 339 349 348 345 340 336 333 329 321 309 300 293 291 289 292 295 293 291 289 289 289 286 282 275 266 260 261 267 270 267 270 281 284 287 287 284 281 283 289 282 276 276 274 278 281 281 279 280 288 280 271 268 268 284 283 278 287 294 294 288 289 308
315 292 299 316 314 300 296 303 297 279 276 272 255 254 269 284 290 278 258 263 279 291 302 317 330 337 339 337 339 341 342 339 332 322 308 298 292 293 296 295 294 292 292 292 290 287 283 277 269 265 262 261 261 265 279 289 291 290 289 284 280 287 287 278 276 273 276 276 265 261 264 265 269 265 259 263 274 281 283 284 277 280 287 287 287
317 303 303 292 287 288 288 289 294 296 290 278 264 263 273 282 280 270 267 272 282 291 299 309 318 323 327 329 333 338 342 343 342 337 327 317 309 305 303 300 298 296 296 295 294 293 291 287 280 275 269 264 263 263 268 278 289 292 291 294 285 284 292 282 275 276 273 261 246 244 255 258 259 253 249 254 268 276 281 283 276 272 281 285 277
44 14 339 304 291 300 310 305 295 292 289 284 278 276 281 284 281 274 271 275 282 285 291 305 311 315 319 320 323 328 333 336 335 335 333 329 325 321 315 310 305 302 302 299 298 298 297 295 290 286 281 276 272 269 269 269 278 285 283 289 284 283 299 289 275 270 250 242 256 253 251 249 244 249 253 254 264 273 276 282 278 271 273 274 272
62 59 63 68 59 44 26 359 337 322 308 303 303 303 300 294 293 291 288 290 293 294 303 312 316 317 317 318 319 321 323 325 324 325 327 328 328 328 325 319 313 307 305 303 302 301 300 298 296 294 291 288 284 278 276 271 271 275 272 275 277 282 301 303 293 275 244 252 271 257 243 242 242 251 260 259 257 256 264 275 274 270 271 272 270
66 67 69 70 70 69 64 50 33 35 44 34 18 354 346 342 332 327 318 312 314 321 324 322 320 319 318 319 319 319 322 323 321 319 319 322 326 328 327 325 321 313 308 306 305 305 302 301 299 299 297 296 294 289 285 280 275 273 271 271 273 275 285 295 297 282 254 253 265 254 241 244 251 259 266 266 258 251 256 265 268 271 271 273 271
68 69 68 69 69 67 66 64 59 63 68 63 59 54 47 36 22 15 6 1 354 344 337 328 320 317 317 317 317 317 318 318 319 320 321 322 322 326 330 329 327 322 317 314 310 308 304 303 303 302 302 300 300 298 293 289 285 280 277 273 272 269 265 272 280 279 270 264 269 268 253 254 263 266 270 270 263 259 259 261 267 271 269 268 267
64 62 61 61 62 63 64 64 63 63 63 64 64 59 53 48 44 35 27 28 21 10 359 345 331 323 320 319 316 314 313 315 321 326 329 334 336 337 336 334 337 339 335 331 325 320 315 313 310 307 306 304 302 301 298 295 292 289 285 278 272 266 260 259 259 270 277 272 271 274 267 265 269 271 273 272 268 266 265 265 265 266 265 264 262
58 55 55 56 59 62 63 63 61 59 60 63 63 60 53 46 46 43 39 38 35 27 13 3 357 345 333 327 324 323 324 321 324 346 354 345 339 337 339 344 347 348 346 347 345 341 338 335 330 326 320 316 311 307 303 300 296 293 291 286 279 269 262 258 253 257 269 272 272 274 272 271 271 273 273 270 267 269 273 270 261 260 263 261 259
65 62 62 61 61 61 61 61 60 60 64 64 60 57 53 48 48 49 50 51 52 41 26 26 17 354 336 325 329 336 337 329 329 351 341 333 334 340 344 345 345 348 353 353 349 345 343 342 339 337 334 330 325 319 313 307 302 296 292 289 285 278 268 261 255 253 255 263 269 267 265 266 268 267 265 265 265 267 274 272 262 259 259 258 258
72 70 68 66 64 63 61 60 59 56 57 56 53 52 49 47 46 50 57 60 61 48 35 39 26 7 351 329 339 338 340 18 350 331 329 335 347 346 339 341 346 348 347 343 340 339 338 338 337 336 334 332 328 325 321 318 313 307 300 293 289 285 278 269 261 256 252 254 260 262 258 253 253 256 254 259 268 268 268 269 265 261 258 259 259
74 72 70 69 66 65 64 62 60 57 54 53 52 49 47 45 43 43 47 52 56 48 42 45 38 31 21 314 323 336 349 9 335 327 339 353 340 337 339 345 344 340 340 339 338 336 335 335 335 333 332 329 325 322 319 317 316 314 311 304 297 290 284 277 270 263 256 252 253 258 261 254 248 250 251 256 264 265 262 264 265 262 260 261 260
76 75 73 73 71 70 69 67 65 62 59 58 57 54 51 48 45 43 45 48 53 53 51 52 47 47 49 26 339 345 337 333 329 324 340 336 336 351 351 340 338 337 336 333 331 330 330 331 330 329 328 326 324 320 316 313 312 311 310 310 308 302 293 285 277 270 263 256 252 252 259 262 254 250 251 256 262 258 251 252 257 259 262 262 262
79 78 77 76 75 74 73 72 71 68 66 65 63 60 56 53 50 49 49 48 48 52 51 48 47 47 51 60 57 17 324 327 334 317 321 332 358 356 335 334 335 331 329 329 329 329 329 328 326 325 323 322 321 320 317 314 310 309 307 306 307 307 304 297 287 278 270 263 257 252 255 262 262 258 253 251 257 255 244 242 248 255 260 262 263
80 79 78 77 76 76 75 74 73 71 70 68 66 63 61 59 58 56 56 53 52 53 48 41 42 41 41 48 42 26 5 346 351 325 324 331 328 326 331 334 329 328 331 335 334 332 330 327 325 323 321 320 319 317 316 315 312 309 307 305 304 304 304 304 299 289 277 268 262 257 255 255 258 261 257 252 253 248 238 235 243 252 257 260 261
81 80 79 78 77 76 75 74 74 72 70 69 67 66 65 63 61 60 59 57 56 56 52 47 44 41 38 39 34 29 27 23 22 359 331 304 318 326 327 326 328 334 340 336 334 333 330 328 327 326 325 322 320 317 315 314 314 312 310 308 307 305 302 302 302 300 290 278 267 261 259 255 254 255 258 262 257 245 239 236 239 249 255 257 258
82 80 79 78 77 76 75 74 73 72 71 70 68 66 64 62 59 58 58 57 57 56 55 51 47 43 40 40 37 36 36 33 18 4 345 288 317 324 320 326 332 334 332 331 331 331 329 331 334 333 332 330 327 324 320 317 314 314 313 311 310 308 306 303 302 302 299 291 279 268 262 259 256 254 256 260 260 255 250 242 238 244 247 249 253
82 79 78 76 75 75 73 72 72 71 70 69 67 64 62 60 58 56 56 56 54 53 53 52 48 44 40 38 36 34 30 19 5 357 348 295 301 303 311 322 324 321 326 328 325 327 330 333 335 337 339 338 336 331 326 322 319 316 315 314 313 311 309 307 304 302 300 297 291 280 269 263 260 257 255 255 257 260 258 246 240 242 244 245 248
82 79 76 74 73 71 70 69 68 66 64 61 59 57 55 54 53 51 50 50 48 46 45 44 41 38 35 34 32 31 27 4 349 343 333 300 299 297 301 310 307 307 319 323 322 325 328 328 332 337 339 339 340 339 335 331 328 325 322 320 318 316 314 311 308 305 302 298 295 289 280 269 263 260 258 255 254 255 257 251 241 238 243 247 245
80 76 72 69 67 66 64 63 60 56 54 51 49 47 44 41 39 39 37 36 35 31 28 26 24 21 20 21 18 20 18 2 350 339 325 308 302 293 295 310 307 298 311 319 320 321 321 325 330 331 332 334 337 340 341 337 333 329 325 321 319 318 318 317 314 310 306 301 297 293 288 280 270 264 260 257 255 252 252 252 246 240 238 241 243
73 69 64 59 58 56 53 51 49 46 43 40 39 35 33 30 28 27 26 25 23 20 18 15 11 8 4 2 359 360 359 351 345 340 334 324 311 298 297 306 299 297 309 315 316 317 318 321 325 324 325 328 331 334 335 333 331 330 325 318 316 315 314 315 314 313 311 306 301 295 290 285 278 272 265 259 257 254 251 249 249 248 239 232 232
69 64 59 53 50 46 42 40 37 34 31 28 26 23 20 19 17 15 14 15 13 9 9 7 4 1 355 350 348 349 347 342 337 336 337 332 320 311 311 305 289 289 302 308 309 311 310 313 318 319 321 322 323 326 326 326 328 328 325 317 314 313 310 308 308 310 311 310 308 304 298 291 284 278 272 264 259 257 254 249 247 249 245 234 228
69 64 57 50 45 40 35 31 28 25 21 18 15 13 12 10 9 8 4 4 3 359 358 358 355 354 353 348 346 346 344 341 338 335 335 331 323 318 317 313 301 294 300 305 304 301 302 309 314 315 317 319 317 319 320 320 319 319 318 314 312 312 309 305 303 301 302 303 304 305 305 302 295 286 277 269 262 258 256 254 248 247 247 240 235
69 61 52 43 36 30 25 22 19 15 11 9 7 5 4 3 2 2 359 358 358 356 354 354 351 349 349 346 343 344 342 340 338 336 334 331 327 322 315 305 301 306 310 307 302 304 308 311 312 311 312 313 310 311 310 307 309 311 311 309 309 310 310 309 305 301 297 296 296 297 299 301 301 297 287 277 268 261 257 256 252 247 246 244 240
63 52 41 32 24 19 15 12 10 7 4 2 360 359 358 357 357 357 355 354 354 354 353 353 351 348 348 346 343 343 341 339 337 336 334 331 329 326 317 301 289 290 299 299 294 299 304 307 306 305 307 306 302 302 303 304 306 308 308 306 305 305 306 308 308 305 300 296 294 292 293 294 295 297 295 286 276 267 260 257 254 247 244 243 242
43 34 25 19 14 9 6 4 2 359 357 355 353 353 351 351 351 351 350 348 348 349 348 348 348 347 346 345 344 343 342 339 337 335 333 330 327 324 318 308 292 278 275 289 288 273 289 301 300 298 301 303 301 302 303 304 305 306 306 305 303 302 302 302 302 304 303 299 295 293 291 290 291 291 293 291 284 275 266 260 255 248 243 242 242
27 19 11 7 4 360 358 356 353 351 349 347 345 344 344 343 343 343 343 342 341 342 342 343 343 342 341 340 340 340 339 337 336 334 332 329 326 320 315 310 299 284 276 280 286 272 270 290 295 296 300 302 303 304 304 304 304 305 305 304 302 301 298 297 297 298 299 299 297 293 290 288 288 287 287 288 286 280 272 265 258 249 243 242 241
12 4 358 355 353 351 350 348 346 344 342 341 339 339 340 339 340 339 339 339 338 338 338 338 339 338 337 336 335 336 335 333 331 331 329 328 326 320 313 307 299 291 283 275 276 279 275 277 288 294 299 302 303 303 303 304 304 303 303 301 300 299 297 295 294 294 293 295 295 294 290 287 285 285 284 283 283 281 275 269 262 254 245 242 241
357 351 347 346 345 345 344 344 343 343 341 341 340 340 340 340 340 340 339 338 338 337 336 336 337 337 335 333 332 332 332 329 327 326 324 324 324 320 315 307 297 292 285 277 275 283 285 279 281 287 293 298 299 299 301 302 303 303 302 298 297 296 295 295 294 292 290 290 291 291 290 287 283 282 281 280 279 278 275 270 265 259 251 245 243
351 346 344 344 344 343 344 344 343 343 342 342 341 340 340 339 338 338 338 338 337 336 335 335 335 335 333 331 330 329 328 325 323 322 320 319 320 317 314 310 300 295 288 281 280 284 288 287 284 285 287 289 292 295 298 298 299 301 300 298 296 294 292 293 294 293 291 288 286 287 288 287 284 281 280 279 277 275 274 270 265 261 257 251 246
352 348 346 345 345 344 343 343 342 342 341 341 340 340 338 337 336 336 337 335 335 334 333 333 333 333 330 328 326 325 324 321 319 318 317 315 315 312 309 307 302 298 293 285 281 283 288 291 288 286 287 283 282 288 293 294 295 297 297 297 297 295 292 291 292 293 293 289 286 284 284 284 284 282 280 278 277 274 272 269 264 261 258 255 251
348 346 345 344 344 344 343 342 342 342 341 341 341 340 339 338 336 335 335 334 333 332 330 330 329 328 326 323 321 321 319 317 315 315 314 312 310 306 304 302 299 296 295 288 282 281 285 289 289 286 287 284 279 282 287 290 291 293 294 294 295 296 295 294 292 291 293 292 288 284 282 281 282 283 281 279 277 275 273 270 266 260 257 255 252
345 346 346 345 345 344 343 342 341 341 341 340 341 340 339 338 336 334 334 332 331 329 327 326 324 322 320 317 317 318 316 314 312 312 311 309 307 302 298 297 295 293 292 288 283 281 280 283 287 288 287 285 284 281 282 286 290 292 292 291 292 294 296 296 294 290 290 292 289 285 282 280 279 280 281 280 278 277 274 271 268 262 257 254 252
342 344 344 343 342 341 340 339 338 338 337 337 338 338 337 336 334 333 332 330 328 326 325 323 322 319 318 316 315 316 314 310 308 309 308 306 304 299 295 294 293 291 289 287 284 282 279 279 284 288 288 287 287 285 283 284 287 289 291 292 294 293 291 293 294 292 291 290 288 287 285 282 281 279 279 279 279 278 275 272 270 265 258 253 251
336 339 340 339 337 336 335 335 334 334 334 335 337 337 335 334 334 332 330 328 325 323 323 323 322 320 317 317 316 315 314 309 306 306 305 304 301 297 296 295 294 292 290 288 287 284 282 282 283 285 287 288 287 286 288 288 284 282 287 292 296 295 291 289 291 293 294 292 288 285 284 284 283 280 278 277 276 276 275 272 270 265 259 254 251
329 334 336 335 334 333 333 332 332 331 332 335 337 336 336 335 334 330 327 325 324 322 322 321 321 320 318 318 317 315 313 308 303 300 300 301 301 299 297 296 294 293 291 291 290 288 287 286 285 285 288 289 289 290 292 292 286 283 285 289 291 293 293 292 290 289 290 291 289 284 283 284 283 281 278 276 274 273 274 273 271 266 260 255 251
326 330 331 331 331 331 330 330 330 330 331 335 337 337 337 335 332 328 325 324 323 321 320 319 319 319 319 318 316 314 309 300 295 295 295 296 296 294 295 296 295 294 293 292 292 291 290 288 287 288 290 290 292 297 299 296 294 292 292 289 286 286 289 292 290 287 285 287 288 285 283 282 281 280 278 275 273 273 274 274 272 269 264 257 251
323 326 327 328 328 327 328 327 327 327 329 334 337 337 337 334 328 325 323 322 321 319 317 317 317 317 318 316 313 311 306 300 300 301 298 294 291 289 290 293 293 293 293 292 291 290 290 288 288 290 291 291 293 298 299 299 301 304 302 297 292 291 291 291 289 288 287 286 286 285 286 285 281 277 277 276 276 277 278 276 276 274 271 265 257
318 321 323 324 324 324 324 324 324 325 327 333 336 335 334 332 327 323 318 316 315 313 312 313 313 312 312 311 310 310 307 306 308 306 299 294 292 290 290 289 288 288 289 290 291 291 290 287 287 288 288 290 294 296 296 297 300 302 302 302 305 305 303 299 295 293 295 298 293 287 288 289 283 276 276 276 276 278 279 278 280 280 278 273 266
313 318 320 320 321 321 321 322 322 322 326 331 333 332 331 330 327 320 311 308 308 306 304 304 305 307 308 308 308 309 308 308 307 303 298 296 296 293 291 290 287 284 283 285 288 290 290 289 288 288 288 291 294 294 295 296 298 298 296 297 302 303 299 297 295 291 292 301 301 293 288 287 283 275 273 274 275 276 276 278 280 281 280 278 273
310 315 317 317 318 318 318 319 319 319 324 329 331 331 330 327 325 318 307 300 298 297 297 298 300 303 305 305 304 304 305 306 305 302 299 298 296 294 291 290 287 284 283 284 285 286 286 287 286 285 287 289 291 292 294 295 295 295 291 289 290 290 287 287 286 284 285 289 293 293 289 285 282 277 274 275 276 274 272 274 276 278 279 279 276
308 311 314 314 314 315 315 316 316 317 322 328 331 331 328 325 324 316 301 294 293 294 296 299 301 300 298 296 296 296 299 302 301 299 297 296 295 292 290 287 286 284 282 281 281 279 279 280 280 279 280 280 281 283 286 285 283 282 280 279 281 282 280 281 281 282 283 283 284 288 287 282 279 276 274 275 274 270 270 272 274 275 276 276 275
307 310 312 312 312 313 314 315 315 316 322 329 331 329 327 326 323 309 296 294 295 297 298 297 297 293 287 286 288 290 292 294 294 294 293 293 291 289 287 286 285 283 279 278 279 277 274 273 272 272 274 274 273 275 278 278 277 277 279 284 289 292 289 285 282 281 281 282 279 275 274 276 277 273 272 272 272 270 271 271 271 271 272 273 273
305 308 309 309 311 312 313 315 316 317 322 330 332 328 327 326 318 306 300 299 297 295 295 292 291 288 284 284 286 286 287 289 290 291 291 290 288 287 285 284 284 282 281 283 283 277 273 273 273 273 276 275 274 276 280 284 284 285 288 290 293 297 295 289 287 285 286 288 282 271 267 272 272 269 270 272 272 271 271 270 268 267 267 268 269
303 305 307 308 310 312 314 317 317 318 322 330 333 329 327 325 318 308 302 299 293 290 292 291 290 288 283 281 284 286 287 287 288 291 293 292 289 287 285 285 285 283 282 285 285 279 274 274 275 276 278 279 280 282 284 287 288 288 290 289 289 291 289 286 288 288 287 286 285 284 282 277 275 275 277 276 275 272 270 269 267 264 262 264 266
302 304 306 308 309 311 313 316 317 318 322 329 332 328 325 325 319 309 302 298 293 293 295 292 288 287 285 287 290 289 287 288 290 292 294 294 292 290 288 287 284 281 281 284 285 283 279 276 276 277 278 280 282 283 282 283 284 284 283 281 281 282 279 277 282 287 286 282 280 283 280 276 278 280 280 280 278 271 264 264 264 262 260 260 262
301 304 306 306 307 311 314 315 316 318 321 326 329 327 325 326 321 308 301 298 296 296 296 293 293 295 296 298 300 295 289 289 292 293 295 295 294 290 288 285 281 280 283 285 285 284 281 279 279 278 277 279 280 279 279 278 277 275 273 272 272 272 271 272 276 281 284 283 283 283 275 275 279 279 276 279 281 271 264 261 259 258 257 257 258